Time,TemperatureF,DewpointF,PressureIn,WindDirection,WindDirectionDegrees,WindSpeedMPH,WindSpeedGustMPH,Humidity,HourlyPrecipIn,Conditions,Clouds,dailyrainin,SoftwareType,DateUTC
2013-01-20 00:00:00,34.0,27.2,30.01,SW,225,1.0,3.0,76,0.00,,---,0.00,VWS V14.01,2013-01-20 05:00:00,
2013-01-20 00:05:00,33.8,27.0,30.01,SW,225,2.0,4.0,76,0.00,,---,0.00,VWS V14.01,2013-01-20 05:05:00,
2013-01-20 00:10:00,33.7,27.0,30.01,SW,225,0.0,2.0,76,0.00,,---,0.00,VWS V14.01,2013-01-20 05:10:00,
2013-01-20 00:15:00,33.4,27.0,30.00,SW,225,2.0,4.0,77,0.00,,---,0.00,VWS V14.01,2013-01-20 05:15:00,
2013-01-20 00:20:00,33.2,26.8,30.00,SW,225,1.0,2.0,77,0.00,,---,0.00,VWS V14.01,2013-01-20 05:20:00,
2013-01-20 00:25:00,33.1,27.0,30.00,SW,225,1.0,3.0,78,0.00,,---,0.00,VWS V14.01,2013-01-20 05:25:00,
2013-01-20 00:30:00,33.1,27.0,29.99,SW,225,1.0,3.0,78,0.00,,---,0.00,VWS V14.01,2013-01-20 05:30:00,
2013-01-20 00:35:00,32.9,26.8,29.99,SW,225,1.0,3.0,78,0.00,,---,0.00,VWS V14.01,2013-01-20 05:35:00,
2013-01-20 00:40:00,32.9,26.8,29.99,SW,225,0.0,1.0,78,0.00,,---,0.00,VWS V14.01,2013-01-20 05:40:00,
2013-01-20 00:45:00,32.8,26.7,29.98,SW,225,0.0,0.0,78,0.00,,---,0.00,VWS V14.01,2013-01-20 05:45:00,
2013-01-20 00:50:00,32.8,26.7,29.98,SW,225,0.0,0.0,78,0.00,,---,0.00,VWS V14.01,2013-01-20 05:50:00,
2013-01-20 00:55:00,32.8,26.4,29.98,SW,225,0.0,0.0,77,0.00,,---,0.00,VWS V14.01,2013-01-20 05:55:00,
2013-01-20 01:00:00,32.6,26.5,29.98,SW,225,0.0,0.0,78,0.00,,---,0.00,VWS V14.01,2013-01-20 06:00:00,
2013-01-20 01:05:00,32.5,26.4,29.98,SW,225,0.0,0.0,78,0.00,,---,0.00,VWS V14.01,2013-01-20 06:05:00,
2013-01-20 01:10:00,32.5,26.4,29.98,SW,225,0.0,0.0,78,0.00,,---,0.00,VWS V14.01,2013-01-20 06:10:00,
2013-01-20 01:15:00,32.5,26.4,29.97,SW,225,0.0,0.0,78,0.00,,---,0.00,VWS V14.01,2013-01-20 06:15:00,
2013-01-20 01:20:00,32.5,26.4,29.97,SW,225,0.0,1.0,78,0.00,,---,0.00,VWS V14.01,2013-01-20 06:20:00,
2013-01-20 01:25:00,32.3,26.2,29.97,SW,225,0.0,2.0,78,0.00,,---,0.00,VWS V14.01,2013-01-20 06:25:00,
2013-01-20 01:30:00,32.2,26.1,29.97,SW,225,0.0,1.0,78,0.00,,---,0.00,VWS V14.01,2013-01-20 06:30:00,
2013-01-20 01:35:00,32.0,25.9,29.97,SW,225,0.0,2.0,78,0.00,,---,0.00,VWS V14.01,2013-01-20 06:35:00,
2013-01-20 01:40:00,31.9,26.1,29.97,SW,225,0.0,0.0,79,0.00,,---,0.00,VWS V14.01,2013-01-20 06:40:00,
2013-01-20 01:45:00,31.8,26.0,29.96,SW,225,0.0,1.0,79,0.00,,---,0.00,VWS V14.01,2013-01-20 06:45:00,
2013-01-20 01:50:00,31.6,25.9,29.96,SW,225,0.0,0.0,79,0.00,,---,0.00,VWS V14.01,2013-01-20 06:50:00,
2013-01-20 01:55:00,31.5,26.0,29.96,SW,225,0.0,0.0,80,0.00,,---,0.00,VWS V14.01,2013-01-20 06:55:00,
2013-01-20 02:00:00,31.5,26.0,29.95,SW,225,0.0,1.0,80,0.00,,---,0.00,VWS V14.01,2013-01-20 07:00:00,
2013-01-20 02:05:00,31.3,25.9,29.95,SW,225,1.0,3.0,80,0.00,,---,0.00,VWS V14.01,2013-01-20 07:05:00,
2013-01-20 02:10:00,31.3,25.9,29.95,SW,225,0.0,3.0,80,0.00,,---,0.00,VWS V14.01,2013-01-20 07:10:00,
2013-01-20 02:15:00,31.3,25.9,29.95,SW,225,1.0,2.0,80,0.00,,---,0.00,VWS V14.01,2013-01-20 07:15:00,
2013-01-20 02:20:00,31.3,25.9,29.95,SW,225,1.0,4.0,80,0.00,,---,0.00,VWS V14.01,2013-01-20 07:20:00,
2013-01-20 02:25:00,31.3,25.9,29.95,SW,225,1.0,4.0,80,0.00,,---,0.00,VWS V14.01,2013-01-20 07:25:00,
2013-01-20 02:30:00,31.3,25.9,29.94,SW,225,1.0,2.0,80,0.00,,---,0.00,VWS V14.01,2013-01-20 07:30:00,
2013-01-20 02:35:00,31.5,26.0,29.94,SW,225,2.0,5.0,80,0.00,,---,0.00,VWS V14.01,2013-01-20 07:35:00,
2013-01-20 02:40:00,31.6,26.1,29.94,SW,225,3.0,5.0,80,0.00,,---,0.00,VWS V14.01,2013-01-20 07:40:00,
2013-01-20 02:45:00,31.9,26.4,29.94,SW,225,2.0,4.0,80,0.00,,---,0.00,VWS V14.01,2013-01-20 07:45:00,
2013-01-20 02:50:00,32.0,26.2,29.94,SW,225,0.0,2.0,79,0.00,,---,0.00,VWS V14.01,2013-01-20 07:50:00,
2013-01-20 02:55:00,32.3,26.2,29.94,SW,225,0.0,2.0,78,0.00,,---,0.00,VWS V14.01,2013-01-20 07:55:00,
2013-01-20 03:00:00,32.6,26.2,29.93,SW,225,1.0,3.0,77,0.00,,---,0.00,VWS V14.01,2013-01-20 08:00:00,
2013-01-20 03:05:00,32.6,26.2,29.93,SW,225,1.0,4.0,77,0.00,,---,0.00,VWS V14.01,2013-01-20 08:05:00,
2013-01-20 03:10:00,33.4,25.0,29.93,WSW,248,6.0,17.0,71,0.00,,---,0.00,VWS V14.01,2013-01-20 08:10:00,
2013-01-20 03:15:00,34.4,25.3,29.92,SW,225,5.0,9.0,69,0.00,,---,0.00,VWS V14.01,2013-01-20 08:15:00,
2013-01-20 03:20:00,35.7,24.4,29.92,WSW,248,5.0,12.0,63,0.00,,---,0.00,VWS V14.01,2013-01-20 08:20:00,
2013-01-20 03:25:00,37.6,24.6,29.92,WSW,248,6.0,14.0,59,0.00,,---,0.00,VWS V14.01,2013-01-20 08:25:00,
2013-01-20 03:30:00,39.3,23.2,29.91,WSW,248,7.0,13.0,52,0.00,,---,0.00,VWS V14.01,2013-01-20 08:30:00,
2013-01-20 03:35:00,40.7,24.9,29.91,West,270,5.0,11.0,53,0.00,,---,0.00,VWS V14.01,2013-01-20 08:35:00,
2013-01-20 03:40:00,41.0,23.8,29.91,WSW,248,5.0,9.0,50,0.00,,---,0.00,VWS V14.01,2013-01-20 08:40:00,
2013-01-20 03:45:00,41.9,22.6,29.90,WSW,248,6.0,12.0,46,0.00,,---,0.00,VWS V14.01,2013-01-20 08:45:00,
2013-01-20 03:50:00,42.4,23.6,29.90,WSW,248,4.0,6.0,47,0.00,,---,0.00,VWS V14.01,2013-01-20 08:50:00,
2013-01-20 03:55:00,42.9,23.0,29.90,WSW,248,5.0,10.0,45,0.00,,---,0.00,VWS V14.01,2013-01-20 08:55:00,
2013-01-20 04:00:00,43.0,23.1,29.89,WSW,248,4.0,9.0,45,0.00,,---,0.00,VWS V14.01,2013-01-20 09:00:00,
2013-01-20 04:05:00,43.3,22.9,29.89,WSW,248,6.0,11.0,44,0.00,,---,0.00,VWS V14.01,2013-01-20 09:05:00,
2013-01-20 04:10:00,43.7,23.2,29.89,WSW,248,4.0,11.0,44,0.00,,---,0.00,VWS V14.01,2013-01-20 09:10:00,
2013-01-20 04:15:00,44.0,23.0,29.89,WSW,248,4.0,9.0,43,0.00,,---,0.00,VWS V14.01,2013-01-20 09:15:00,
2013-01-20 04:20:00,44.3,23.8,29.89,West,270,4.0,11.0,44,0.00,,---,0.00,VWS V14.01,2013-01-20 09:20:00,
2013-01-20 04:25:00,44.5,22.9,29.89,WSW,248,6.0,10.0,42,0.00,,---,0.00,VWS V14.01,2013-01-20 09:25:00,
2013-01-20 04:30:00,44.6,22.9,29.88,WSW,248,5.0,12.0,42,0.00,,---,0.00,VWS V14.01,2013-01-20 09:30:00,
2013-01-20 04:35:00,44.9,23.2,29.88,WSW,248,5.0,10.0,42,0.00,,---,0.00,VWS V14.01,2013-01-20 09:35:00,
2013-01-20 04:40:00,45.1,23.4,29.88,WSW,248,5.0,11.0,42,0.00,,---,0.00,VWS V14.01,2013-01-20 09:40:00,
2013-01-20 04:45:00,45.1,24.0,29.88,WSW,248,5.0,11.0,43,0.00,,---,0.00,VWS V14.01,2013-01-20 09:45:00,
2013-01-20 04:50:00,45.2,23.5,29.88,West,270,5.0,10.0,42,0.00,,---,0.00,VWS V14.01,2013-01-20 09:50:00,
2013-01-20 04:55:00,45.2,23.5,29.88,West,270,5.0,10.0,42,0.00,,---,0.00,VWS V14.01,2013-01-20 09:55:00,
2013-01-20 05:00:00,45.2,23.5,29.88,West,270,5.0,12.0,42,0.00,,---,0.00,VWS V14.01,2013-01-20 10:00:00,
2013-01-20 05:05:00,45.2,24.0,29.88,WNW,292,5.0,7.0,43,0.00,,---,0.00,VWS V14.01,2013-01-20 10:05:00,
2013-01-20 05:10:00,45.1,24.0,29.88,West,270,4.0,7.0,43,0.00,,---,0.00,VWS V14.01,2013-01-20 10:10:00,
2013-01-20 05:15:00,44.8,24.2,29.88,WSW,248,5.0,10.0,44,0.00,,---,0.00,VWS V14.01,2013-01-20 10:15:00,
2013-01-20 05:20:00,44.6,25.1,29.88,West,270,3.0,7.0,46,0.00,,---,0.00,VWS V14.01,2013-01-20 10:20:00,
2013-01-20 05:25:00,44.2,24.2,29.88,WSW,248,5.0,10.0,45,0.00,,---,0.00,VWS V14.01,2013-01-20 10:25:00,
2013-01-20 05:30:00,44.2,24.8,29.88,WSW,248,4.0,8.0,46,0.00,,---,0.00,VWS V14.01,2013-01-20 10:30:00,
2013-01-20 05:35:00,43.9,25.0,29.88,West,270,4.0,9.0,47,0.00,,---,0.00,VWS V14.01,2013-01-20 10:35:00,
2013-01-20 05:40:00,43.4,24.5,29.88,WNW,292,5.0,10.0,47,0.00,,---,0.00,VWS V14.01,2013-01-20 10:40:00,
2013-01-20 05:45:00,43.3,24.4,29.88,West,270,4.0,8.0,47,0.00,,---,0.00,VWS V14.01,2013-01-20 10:45:00,
2013-01-20 05:50:00,43.3,25.4,29.88,West,270,4.0,7.0,49,0.00,,---,0.00,VWS V14.01,2013-01-20 10:50:00,
2013-01-20 05:55:00,43.3,25.4,29.88,West,270,4.0,7.0,49,0.00,,---,0.00,VWS V14.01,2013-01-20 10:55:00,
2013-01-20 06:00:00,43.2,25.4,29.88,West,270,4.0,10.0,49,0.00,,---,0.00,VWS V14.01,2013-01-20 11:00:00,
2013-01-20 06:05:00,43.3,24.9,29.88,WNW,292,5.0,11.0,48,0.00,,---,0.00,VWS V14.01,2013-01-20 11:05:00,
2013-01-20 06:10:00,43.4,25.5,29.88,West,270,3.0,6.0,49,0.00,,---,0.00,VWS V14.01,2013-01-20 11:10:00,
2013-01-20 06:15:00,43.3,25.9,29.88,West,270,4.0,6.0,50,0.00,,---,0.00,VWS V14.01,2013-01-20 11:15:00,
2013-01-20 06:20:00,43.2,25.4,29.88,West,270,4.0,7.0,49,0.00,,---,0.00,VWS V14.01,2013-01-20 11:20:00,
2013-01-20 06:25:00,43.3,25.4,29.88,West,270,5.0,9.0,49,0.00,,---,0.00,VWS V14.01,2013-01-20 11:25:00,
2013-01-20 06:30:00,43.3,25.9,29.88,WNW,292,5.0,9.0,50,0.00,,---,0.00,VWS V14.01,2013-01-20 11:30:00,
2013-01-20 06:35:00,43.6,26.2,29.88,West,270,5.0,9.0,50,0.00,,---,0.00,VWS V14.01,2013-01-20 11:35:00,
2013-01-20 06:40:00,43.9,26.0,29.88,WSW,248,5.0,11.0,49,0.00,,---,0.00,VWS V14.01,2013-01-20 11:40:00,
2013-01-20 06:45:00,44.3,26.4,29.88,WSW,248,7.0,13.0,49,0.00,,---,0.00,VWS V14.01,2013-01-20 11:45:00,
2013-01-20 06:50:00,44.5,26.0,29.88,West,270,6.0,12.0,48,0.00,,---,0.00,VWS V14.01,2013-01-20 11:50:00,
2013-01-20 06:55:00,44.8,26.3,29.88,WSW,248,6.0,12.0,48,0.00,,---,0.00,VWS V14.01,2013-01-20 11:55:00,
2013-01-20 07:00:00,44.8,26.3,29.88,WSW,248,5.0,12.0,48,0.00,,---,0.00,VWS V14.01,2013-01-20 12:00:00,
2013-01-20 07:05:00,44.9,26.9,29.88,WSW,248,6.0,13.0,49,0.00,,---,0.00,VWS V14.01,2013-01-20 12:05:00,
2013-01-20 07:10:00,44.9,26.9,29.88,West,270,7.0,14.0,49,0.00,,---,0.00,VWS V14.01,2013-01-20 12:10:00,
2013-01-20 07:15:00,44.9,26.9,29.88,West,270,5.0,11.0,49,0.00,,---,0.00,VWS V14.01,2013-01-20 12:15:00,
2013-01-20 07:20:00,44.8,26.8,29.88,West,270,6.0,11.0,49,0.00,,---,0.00,VWS V14.01,2013-01-20 12:20:00,
2013-01-20 07:25:00,44.8,27.3,29.88,WNW,292,6.0,13.0,50,0.00,,---,0.00,VWS V14.01,2013-01-20 12:25:00,
2013-01-20 07:30:00,44.8,28.3,29.88,WNW,292,5.0,10.0,52,0.00,,---,0.00,VWS V14.01,2013-01-20 12:30:00,
2013-01-20 07:35:00,44.9,27.4,29.88,West,270,5.0,11.0,50,0.00,,---,0.00,VWS V14.01,2013-01-20 12:35:00,
2013-01-20 07:40:00,45.1,27.6,29.88,WNW,292,6.0,11.0,50,0.00,,---,0.00,VWS V14.01,2013-01-20 12:40:00,
2013-01-20 07:45:00,45.2,27.7,29.88,West,270,6.0,11.0,50,0.00,,---,0.00,VWS V14.01,2013-01-20 12:45:00,
2013-01-20 08:10:00,46.5,28.4,29.89,West,259,2.0,9.0,49,0.00,,---,0.00,VWS V14.01,2013-01-20 13:10:00,
2013-01-20 08:12:00,46.4,28.3,29.89,West,265,9.0,9.0,49,0.00,,---,0.00,VWS V14.01,2013-01-20 13:12:00,
2013-01-20 08:15:00,46.8,28.7,29.90,West,279,4.0,7.0,49,0.00,,---,0.00,VWS V14.01,2013-01-20 13:15:00,
2013-01-20 08:17:00,46.8,28.2,29.89,West,273,4.0,7.0,48,0.00,,---,0.00,VWS V14.01,2013-01-20 13:17:00,
2013-01-20 08:20:00,46.8,28.7,29.90,West,281,4.0,13.0,49,0.00,,---,0.00,VWS V14.01,2013-01-20 13:20:00,
2013-01-20 08:22:00,47.0,28.9,29.90,WSW,257,5.0,13.0,49,0.00,,---,0.00,VWS V14.01,2013-01-20 13:22:00,
2013-01-20 08:25:00,47.1,28.9,29.90,NW,311,5.0,7.0,49,0.00,,---,0.00,VWS V14.01,2013-01-20 13:25:00,
2013-01-20 08:27:00,47.0,28.9,29.90,WSW,257,5.0,7.0,49,0.00,,---,0.00,VWS V14.01,2013-01-20 13:27:00,
2013-01-20 08:30:00,47.3,30.1,29.90,WNW,286,4.0,11.0,51,0.00,,---,0.00,VWS V14.01,2013-01-20 13:30:00,
2013-01-20 08:32:00,47.4,29.2,29.90,WSW,246,2.0,11.0,49,0.00,,---,0.00,VWS V14.01,2013-01-20 13:32:00,
2013-01-20 08:35:00,47.9,29.2,29.90,WNW,298,5.0,8.0,48,0.00,,---,0.00,VWS V14.01,2013-01-20 13:35:00,
2013-01-20 08:37:00,47.6,28.9,29.90,WSW,253,1.0,8.0,48,0.00,,---,0.00,VWS V14.01,2013-01-20 13:37:00,
2013-01-20 08:40:00,48.6,29.3,29.90,WSW,254,7.0,7.0,47,0.00,,---,0.00,VWS V14.01,2013-01-20 13:40:00,
2013-01-20 08:42:00,48.3,29.5,29.90,WNW,291,6.0,7.0,48,0.00,,---,0.00,VWS V14.01,2013-01-20 13:42:00,
2013-01-20 08:45:00,49.0,29.1,29.90,WNW,294,5.0,6.0,46,0.00,,---,0.00,VWS V14.01,2013-01-20 13:45:00,
2013-01-20 08:47:00,48.9,29.0,29.90,WNW,283,5.0,6.0,46,0.00,,---,0.00,VWS V14.01,2013-01-20 13:47:00,
2013-01-20 08:50:00,49.5,29.6,29.90,West,279,3.0,6.0,46,0.00,,---,0.00,VWS V14.01,2013-01-20 13:50:00,
2013-01-20 08:52:00,49.3,28.9,29.90,NNW,334,3.0,6.0,45,0.00,,---,0.00,VWS V14.01,2013-01-20 13:52:00,
2013-01-20 09:02:00,50.1,29.6,29.90,West,263,10.0,10.0,45,0.00,,---,0.00,VWS V14.01,2013-01-20 14:02:00,
2013-01-20 09:07:00,50.5,30.5,29.90,NNW,330,3.0,6.0,46,0.00,,---,0.00,VWS V14.01,2013-01-20 14:07:00,
2013-01-20 09:12:00,50.7,30.1,29.90,WSW,240,6.0,11.0,45,0.00,,---,0.00,VWS V14.01,2013-01-20 14:12:00,
2013-01-20 09:17:00,51.1,30.0,29.90,SW,229,6.0,13.0,44,0.00,,---,0.00,VWS V14.01,2013-01-20 14:17:00,
2013-01-20 09:22:00,51.1,30.5,29.90,SSW,212,10.0,11.0,45,0.00,,---,0.00,VWS V14.01,2013-01-20 14:22:00,
2013-01-20 09:27:00,51.3,29.6,29.90,WSW,242,5.0,17.0,43,0.00,,---,0.00,VWS V14.01,2013-01-20 14:27:00,
2013-01-20 09:32:00,51.6,29.9,29.90,West,259,13.0,15.0,43,0.00,,---,0.00,VWS V14.01,2013-01-20 14:32:00,
2013-01-20 09:37:00,51.7,29.9,29.90,WSW,241,11.0,11.0,43,0.00,,---,0.00,VWS V14.01,2013-01-20 14:37:00,
2013-01-20 09:42:00,51.9,29.5,29.90,WSW,253,9.0,11.0,42,0.00,,---,0.00,VWS V14.01,2013-01-20 14:42:00,
2013-01-20 09:47:00,52.2,31.0,29.90,West,279,6.0,15.0,44,0.00,,---,0.00,VWS V14.01,2013-01-20 14:47:00,
2013-01-20 09:52:00,52.4,30.0,29.90,WSW,258,12.0,20.0,42,0.00,,---,0.00,VWS V14.01,2013-01-20 14:52:00,
2013-01-20 09:57:00,52.4,30.0,29.90,SW,232,18.0,21.0,42,0.00,,---,0.00,VWS V14.01,2013-01-20 14:57:00,
2013-01-20 10:02:00,52.3,30.5,29.90,SSW,209,10.0,17.0,43,0.00,,---,0.00,VWS V14.01,2013-01-20 15:02:00,
2013-01-20 10:07:00,52.4,30.0,29.91,SW,215,9.0,18.0,42,0.00,,---,0.00,VWS V14.01,2013-01-20 15:07:00,
2013-01-20 10:12:00,52.6,29.6,29.91,WSW,244,12.0,16.0,41,0.00,,---,0.00,VWS V14.01,2013-01-20 15:12:00,
2013-01-20 10:17:00,52.7,29.7,29.91,WNW,298,9.0,15.0,41,0.00,,---,0.00,VWS V14.01,2013-01-20 15:17:00,
2013-01-20 10:22:00,52.9,29.9,29.91,WSW,248,9.0,23.0,41,0.00,,---,0.00,VWS V14.01,2013-01-20 15:22:00,
2013-01-20 10:27:00,53.0,29.3,29.91,WSW,246,17.0,25.0,40,0.00,,---,0.00,VWS V14.01,2013-01-20 15:27:00,
2013-01-20 10:32:00,53.0,30.0,29.91,WNW,293,13.0,21.0,41,0.00,,---,0.00,VWS V14.01,2013-01-20 15:32:00,
2013-01-20 10:37:00,53.3,30.2,29.91,SSW,213,14.0,14.0,41,0.00,,---,0.00,VWS V14.01,2013-01-20 15:37:00,
2013-01-20 10:42:00,53.5,29.8,29.91,SW,229,9.0,17.0,40,0.00,,---,0.00,VWS V14.01,2013-01-20 15:42:00,
2013-01-20 10:47:00,53.5,29.8,29.91,WSW,243,6.0,16.0,40,0.00,,---,0.00,VWS V14.01,2013-01-20 15:47:00,
2013-01-20 10:52:00,53.9,29.5,29.91,SW,227,10.0,16.0,39,0.00,,---,0.00,VWS V14.01,2013-01-20 15:52:00,
2013-01-20 10:57:00,53.9,28.9,29.91,SW,224,10.0,22.0,38,0.00,,---,0.00,VWS V14.01,2013-01-20 15:57:00,
2013-01-20 11:02:00,54.2,29.2,29.91,WNW,303,5.0,17.0,38,0.00,,---,0.00,VWS V14.01,2013-01-20 16:02:00,
2013-01-20 11:07:00,54.4,28.7,29.91,SW,223,4.0,16.0,37,0.00,,---,0.00,VWS V14.01,2013-01-20 16:07:00,
2013-01-20 11:12:00,54.5,28.8,29.91,NW,316,6.0,16.0,37,0.00,,---,0.00,VWS V14.01,2013-01-20 16:12:00,
2013-01-20 11:17:00,54.7,27.6,29.91,WSW,252,10.0,24.0,35,0.00,,---,0.00,VWS V14.01,2013-01-20 16:17:00,
2013-01-20 11:22:00,54.5,29.4,29.91,WSW,246,6.0,17.0,38,0.00,,---,0.00,VWS V14.01,2013-01-20 16:22:00,
2013-01-20 11:27:00,54.5,28.1,29.91,NNW,329,3.0,14.0,36,0.00,,---,0.00,VWS V14.01,2013-01-20 16:27:00,
2013-01-20 11:32:00,55.0,28.6,29.91,West,259,14.0,18.0,36,0.00,,---,0.00,VWS V14.01,2013-01-20 16:32:00,
2013-01-20 11:37:00,55.0,27.2,29.90,WSW,255,18.0,18.0,34,0.00,,---,0.00,VWS V14.01,2013-01-20 16:37:00,
2013-01-20 11:42:00,55.1,28.0,29.90,West,275,9.0,22.0,35,0.00,,---,0.00,VWS V14.01,2013-01-20 16:42:00,
2013-01-20 11:47:00,55.4,28.9,29.90,South,188,6.0,17.0,36,0.00,,---,0.00,VWS V14.01,2013-01-20 16:47:00,
2013-01-20 11:52:00,55.6,28.4,29.89,West,274,4.0,18.0,35,0.00,,---,0.00,VWS V14.01,2013-01-20 16:52:00,
2013-01-20 11:57:00,55.8,27.1,29.89,SW,227,9.0,18.0,33,0.00,,---,0.00,VWS V14.01,2013-01-20 16:57:00,
2013-01-20 12:02:00,56.0,28.0,29.89,WSW,248,6.0,15.0,34,0.00,,---,0.00,VWS V14.01,2013-01-20 17:02:00,
2013-01-20 12:07:00,56.1,26.7,29.88,West,261,10.0,18.0,32,0.00,,---,0.00,VWS V14.01,2013-01-20 17:07:00,
2013-01-20 12:12:00,56.1,27.4,29.88,West,263,3.0,17.0,33,0.00,,---,0.00,VWS V14.01,2013-01-20 17:12:00,
2013-01-20 12:17:00,56.7,26.4,29.88,WNW,292,8.0,11.0,31,0.00,,---,0.00,VWS V14.01,2013-01-20 17:17:00,
2013-01-20 12:22:00,56.9,27.4,29.88,SW,230,11.0,15.0,32,0.00,,---,0.00,VWS V14.01,2013-01-20 17:22:00,
2013-01-20 12:27:00,56.9,26.6,29.88,NW,311,6.0,12.0,31,0.00,,---,0.00,VWS V14.01,2013-01-20 17:27:00,
2013-01-20 12:32:00,56.9,26.6,29.88,SW,227,5.0,20.0,31,0.00,,---,0.00,VWS V14.01,2013-01-20 17:32:00,
2013-01-20 12:37:00,57.5,27.1,29.88,SW,221,6.0,9.0,31,0.00,,---,0.00,VWS V14.01,2013-01-20 17:37:00,
2013-01-20 12:42:00,57.7,28.1,29.88,WNW,285,4.0,11.0,32,0.00,,---,0.00,VWS V14.01,2013-01-20 17:42:00,
2013-01-20 12:47:00,57.5,26.3,29.88,NW,305,9.0,18.0,30,0.00,,---,0.00,VWS V14.01,2013-01-20 17:47:00,
2013-01-20 12:52:00,57.5,26.3,29.88,WSW,250,6.0,7.0,30,0.00,,---,0.00,VWS V14.01,2013-01-20 17:52:00,
2013-01-20 12:57:00,57.8,25.8,29.88,WSW,243,13.0,13.0,29,0.00,,---,0.00,VWS V14.01,2013-01-20 17:57:00,
2013-01-20 13:02:00,57.8,25.8,29.88,NNE,26,10.0,11.0,29,0.00,,---,0.00,VWS V14.01,2013-01-20 18:02:00,
2013-01-20 13:07:00,58.0,25.1,29.88,SW,234,10.0,13.0,28,0.00,,---,0.00,VWS V14.01,2013-01-20 18:07:00,
2013-01-20 13:12:00,57.5,24.7,29.88,WSW,255,9.0,25.0,28,0.00,,---,0.00,VWS V14.01,2013-01-20 18:12:00,
2013-01-20 13:17:00,57.4,23.7,29.88,WSW,250,9.0,17.0,27,0.00,,---,0.00,VWS V14.01,2013-01-20 18:17:00,
2013-01-20 13:22:00,57.4,23.7,29.88,WNW,282,6.0,20.0,27,0.00,,---,0.00,VWS V14.01,2013-01-20 18:22:00,
2013-01-20 13:27:00,57.2,24.4,29.88,SSW,210,9.0,18.0,28,0.00,,---,0.00,VWS V14.01,2013-01-20 18:27:00,
2013-01-20 13:32:00,57.7,24.0,29.88,West,278,8.0,17.0,27,0.00,,---,0.00,VWS V14.01,2013-01-20 18:32:00,
2013-01-20 13:37:00,57.4,23.7,29.88,WSW,247,15.0,21.0,27,0.00,,---,0.00,VWS V14.01,2013-01-20 18:37:00,
2013-01-20 13:42:00,57.4,25.4,29.88,WSW,253,14.0,14.0,29,0.00,,---,0.00,VWS V14.01,2013-01-20 18:42:00,
2013-01-20 13:47:00,57.5,22.9,29.88,SW,223,23.0,23.0,26,0.00,,---,0.00,VWS V14.01,2013-01-20 18:47:00,
2013-01-20 13:52:00,57.2,23.5,29.88,SW,236,14.0,22.0,27,0.00,,---,0.00,VWS V14.01,2013-01-20 18:52:00,
2013-01-20 13:57:00,57.4,24.6,29.88,WNW,292,4.0,14.0,28,0.00,,---,0.00,VWS V14.01,2013-01-20 18:57:00,
2013-01-20 14:02:00,57.5,22.9,29.88,WSW,242,8.0,11.0,26,0.00,,---,0.00,VWS V14.01,2013-01-20 19:02:00,
2013-01-20 14:07:00,57.4,23.7,29.89,NW,317,4.0,23.0,27,0.00,,---,0.00,VWS V14.01,2013-01-20 19:07:00,
2013-01-20 14:11:00,57.2,23.5,29.89,WNW,287,16.0,20.0,27,0.00,,---,0.00,VWS V14.01,2013-01-20 19:11:00,
2013-01-20 14:16:00,57.2,23.5,29.89,WNW,288,6.0,8.0,27,0.00,,---,0.00,VWS V14.01,2013-01-20 19:16:00,
2013-01-20 14:21:00,57.8,25.8,29.89,West,274,0.0,5.0,29,0.00,,---,0.00,VWS V14.01,2013-01-20 19:21:00,
2013-01-20 14:26:00,57.8,23.2,29.89,NW,320,10.0,15.0,26,0.00,,---,0.00,VWS V14.01,2013-01-20 19:26:00,
2013-01-20 14:31:00,57.7,24.0,29.89,NNW,340,10.0,17.0,27,0.00,,---,0.00,VWS V14.01,2013-01-20 19:31:00,
2013-01-20 14:36:00,57.4,22.8,29.90,WNW,283,3.0,15.0,26,0.00,,---,0.00,VWS V14.01,2013-01-20 19:36:00,
2013-01-20 14:41:00,57.1,23.5,29.90,WNW,287,4.0,14.0,27,0.00,,---,0.00,VWS V14.01,2013-01-20 19:41:00,
2013-01-20 14:46:00,57.1,23.5,29.90,WNW,286,10.0,17.0,27,0.00,,---,0.00,VWS V14.01,2013-01-20 19:46:00,
2013-01-20 14:51:00,56.7,22.2,29.91,WNW,290,2.0,14.0,26,0.00,,---,0.00,VWS V14.01,2013-01-20 19:51:00,
2013-01-20 14:56:00,56.4,22.9,29.91,NW,321,10.0,19.0,27,0.00,,---,0.00,VWS V14.01,2013-01-20 19:56:00,
2013-01-20 15:01:00,56.4,22.9,29.91,NW,311,8.0,10.0,27,0.00,,---,0.00,VWS V14.01,2013-01-20 20:01:00,
2013-01-20 15:06:00,56.4,22.0,29.92,NNW,332,9.0,16.0,26,0.00,,---,0.00,VWS V14.01,2013-01-20 20:06:00,
2013-01-20 15:11:00,56.3,22.8,29.92,West,261,12.0,14.0,27,0.00,,---,0.00,VWS V14.01,2013-01-20 20:11:00,
2013-01-20 15:16:00,56.1,22.6,29.92,NW,306,11.0,14.0,27,0.00,,---,0.00,VWS V14.01,2013-01-20 20:16:00,
2013-01-20 15:21:00,56.0,22.5,29.92,NNW,329,5.0,13.0,27,0.00,,---,0.00,VWS V14.01,2013-01-20 20:21:00,
2013-01-20 15:26:00,55.8,22.3,29.92,NW,321,7.0,16.0,27,0.00,,---,0.00,VWS V14.01,2013-01-20 20:26:00,
2013-01-20 15:31:00,55.7,23.1,29.92,NNW,331,5.0,11.0,28,0.00,,---,0.00,VWS V14.01,2013-01-20 20:31:00,
2013-01-20 15:36:00,55.6,21.3,29.93,NW,304,4.0,19.0,26,0.00,,---,0.00,VWS V14.01,2013-01-20 20:36:00,
2013-01-20 15:41:00,55.4,22.0,29.93,NW,304,4.0,16.0,27,0.00,,---,0.00,VWS V14.01,2013-01-20 20:41:00,
2013-01-20 15:46:00,55.3,21.0,29.93,NW,309,5.0,11.0,26,0.00,,---,0.00,VWS V14.01,2013-01-20 20:46:00,
2013-01-20 15:51:00,55.1,21.7,29.93,North,355,7.0,12.0,27,0.00,,---,0.00,VWS V14.01,2013-01-20 20:51:00,
2013-01-20 15:57:00,55.0,20.8,29.93,West,263,12.0,17.0,26,0.00,,---,0.00,VWS V14.01,2013-01-20 20:57:00,
2013-01-20 16:02:00,54.7,21.4,29.93,WSW,254,10.0,15.0,27,0.00,,---,0.00,VWS V14.01,2013-01-20 21:02:00,
2013-01-20 16:07:00,54.4,21.1,29.93,NW,304,9.0,11.0,27,0.00,,---,0.00,VWS V14.01,2013-01-20 21:07:00,
2013-01-20 16:12:00,54.2,21.0,29.93,North,355,16.0,17.0,27,0.00,,---,0.00,VWS V14.01,2013-01-20 21:12:00,
2013-01-20 16:17:00,53.8,18.8,29.93,WNW,289,8.0,16.0,25,0.00,,---,0.00,VWS V14.01,2013-01-20 21:17:00,
2013-01-20 16:22:00,53.6,19.6,29.94,West,261,20.0,20.0,26,0.00,,---,0.00,VWS V14.01,2013-01-20 21:22:00,
2013-01-20 16:27:00,53.6,19.6,29.94,West,271,10.0,14.0,26,0.00,,---,0.00,VWS V14.01,2013-01-20 21:27:00,
2013-01-20 16:32:00,53.3,19.3,29.94,West,265,2.0,21.0,26,0.00,,---,0.00,VWS V14.01,2013-01-20 21:32:00,
2013-01-20 16:37:00,53.2,19.2,29.95,WSW,244,16.0,18.0,26,0.00,,---,0.00,VWS V14.01,2013-01-20 21:37:00,
2013-01-20 16:42:00,52.7,19.7,29.95,West,281,14.0,17.0,27,0.00,,---,0.00,VWS V14.01,2013-01-20 21:42:00,
2013-01-20 16:47:00,52.4,19.4,29.95,WSW,247,7.0,16.0,27,0.00,,---,0.00,VWS V14.01,2013-01-20 21:47:00,
2013-01-20 16:52:00,52.2,19.2,29.95,West,263,4.0,9.0,27,0.00,,---,0.00,VWS V14.01,2013-01-20 21:52:00,
2013-01-20 16:57:00,51.9,19.0,29.95,NNW,333,2.0,6.0,27,0.00,,---,0.00,VWS V14.01,2013-01-20 21:57:00,
2013-01-20 17:02:00,51.7,18.8,29.95,NNW,333,3.0,4.0,27,0.00,,---,0.00,VWS V14.01,2013-01-20 22:02:00,
2013-01-20 17:07:00,51.4,18.6,29.96,WNW,299,5.0,9.0,27,0.00,,---,0.00,VWS V14.01,2013-01-20 22:07:00,
2013-01-20 17:12:00,51.1,17.4,29.96,NW,320,1.0,10.0,26,0.00,,---,0.00,VWS V14.01,2013-01-20 22:12:00,
2013-01-20 17:17:00,50.7,15.2,29.96,West,267,11.0,17.0,24,0.00,,---,0.00,VWS V14.01,2013-01-20 22:17:00,
2013-01-20 17:22:00,50.5,15.1,29.97,NW,316,5.0,13.0,24,0.00,,---,0.00,VWS V14.01,2013-01-20 22:22:00,
2013-01-20 17:27:00,50.2,13.9,29.97,WSW,254,5.0,23.0,23,0.00,,---,0.00,VWS V14.01,2013-01-20 22:27:00,
2013-01-20 17:32:00,49.9,14.6,29.97,North,355,6.0,12.0,24,0.00,,---,0.00,VWS V14.01,2013-01-20 22:32:00,
2013-01-20 17:37:00,49.6,14.3,29.98,North,355,0.0,11.0,24,0.00,,---,0.00,VWS V14.01,2013-01-20 22:37:00,
2013-01-20 17:42:00,49.2,12.0,29.98,WNW,293,6.0,13.0,22,0.00,,---,0.00,VWS V14.01,2013-01-20 22:42:00,
2013-01-20 17:47:00,48.9,11.7,29.98,West,277,0.0,13.0,22,0.00,,---,0.00,VWS V14.01,2013-01-20 22:47:00,
2013-01-20 17:52:00,48.7,11.6,29.99,West,271,6.0,7.0,22,0.00,,---,0.00,VWS V14.01,2013-01-20 22:52:00,
2013-01-20 17:57:00,48.5,11.4,29.99,West,272,3.0,13.0,22,0.00,,---,0.00,VWS V14.01,2013-01-20 22:57:00,
2013-01-20 18:02:00,48.2,10.1,29.99,WNW,285,7.0,11.0,21,0.00,,---,0.00,VWS V14.01,2013-01-20 23:02:00,
2013-01-20 18:07:00,48.0,11.0,30.00,WSW,244,3.0,9.0,22,0.00,,---,0.00,VWS V14.01,2013-01-20 23:07:00,
2013-01-20 18:12:00,47.7,10.7,30.00,WNW,300,3.0,13.0,22,0.00,,---,0.00,VWS V14.01,2013-01-20 23:12:00,
2013-01-20 18:17:00,47.6,9.6,30.00,WNW,292,0.0,13.0,21,0.00,,---,0.00,VWS V14.01,2013-01-20 23:17:00,
2013-01-20 18:22:00,47.3,8.3,30.00,West,276,8.0,11.0,20,0.00,,---,0.00,VWS V14.01,2013-01-20 23:22:00,
2013-01-20 18:27:00,47.1,9.2,30.00,NW,309,3.0,9.0,21,0.00,,---,0.00,VWS V14.01,2013-01-20 23:27:00,
2013-01-20 18:32:00,46.8,7.9,30.00,NW,313,3.0,10.0,20,0.00,,---,0.00,VWS V14.01,2013-01-20 23:32:00,
2013-01-20 18:37:00,46.7,7.8,30.01,West,275,4.0,10.0,20,0.00,,---,0.00,VWS V14.01,2013-01-20 23:37:00,
2013-01-20 18:42:00,46.5,6.5,30.01,SW,236,11.0,11.0,19,0.00,,---,0.00,VWS V14.01,2013-01-20 23:42:00,
2013-01-20 18:47:00,46.4,7.5,30.01,West,280,11.0,11.0,20,0.00,,---,0.00,VWS V14.01,2013-01-20 23:47:00,
2013-01-20 18:52:00,46.1,6.2,30.02,WNW,286,5.0,9.0,19,0.00,,---,0.00,VWS V14.01,2013-01-20 23:52:00,
2013-01-20 18:58:00,45.9,6.0,30.02,WSW,250,3.0,10.0,19,0.00,,---,0.00,VWS V14.01,2013-01-20 23:58:00,
2013-01-20 19:03:00,45.8,5.9,30.02,North,355,1.0,5.0,19,0.00,,---,0.00,VWS V14.01,2013-01-21 00:03:00,
2013-01-20 19:07:00,45.6,5.7,30.02,West,261,3.0,6.0,19,0.00,,---,0.00,VWS V14.01,2013-01-21 00:07:00,
2013-01-20 19:12:00,45.2,6.5,30.02,WNW,294,1.0,7.0,20,0.00,,---,0.00,VWS V14.01,2013-01-21 00:12:00,
2013-01-20 19:17:00,45.1,6.4,30.02,West,264,4.0,7.0,20,0.00,,---,0.00,VWS V14.01,2013-01-21 00:17:00,
2013-01-20 19:22:00,44.8,5.1,30.03,WSW,239,4.0,6.0,19,0.00,,---,0.00,VWS V14.01,2013-01-21 00:22:00,
2013-01-20 19:27:00,44.6,4.9,30.03,WSW,244,6.0,6.0,19,0.00,,---,0.00,VWS V14.01,2013-01-21 00:27:00,
2013-01-20 19:33:00,44.5,5.9,30.03,WSW,244,3.0,5.0,20,0.00,,---,0.00,VWS V14.01,2013-01-21 00:33:00,
2013-01-20 19:38:00,44.2,5.7,30.03,WSW,250,3.0,9.0,20,0.00,,---,0.00,VWS V14.01,2013-01-21 00:38:00,
2013-01-20 19:43:00,43.9,6.5,30.03,WSW,252,3.0,9.0,21,0.00,,---,0.00,VWS V14.01,2013-01-21 00:43:00,
2013-01-20 19:48:00,43.4,9.0,30.03,West,281,2.0,4.0,24,0.00,,---,0.00,VWS V14.01,2013-01-21 00:48:00,
2013-01-20 19:53:00,42.9,10.4,30.04,WNW,293,2.0,7.0,26,0.00,,---,0.00,VWS V14.01,2013-01-21 00:53:00,
2013-01-20 19:58:00,42.0,12.1,30.04,WNW,293,3.0,3.0,29,0.00,,---,0.00,VWS V14.01,2013-01-21 00:58:00,
2013-01-20 20:03:00,41.0,10.4,30.04,WNW,293,2.0,5.0,28,0.00,,---,0.00,VWS V14.01,2013-01-21 01:03:00,
2013-01-20 20:08:00,40.0,10.3,30.04,WNW,293,2.0,5.0,29,0.00,,---,0.00,VWS V14.01,2013-01-21 01:08:00,
2013-01-20 20:13:00,39.4,9.8,30.04,WNW,293,2.0,4.0,29,0.00,,---,0.00,VWS V14.01,2013-01-21 01:13:00,
2013-01-20 20:18:00,38.9,11.6,30.04,WNW,300,4.0,5.0,32,0.00,,---,0.00,VWS V14.01,2013-01-21 01:18:00,
2013-01-20 20:23:00,38.0,10.8,30.05,NW,304,3.0,6.0,32,0.00,,---,0.00,VWS V14.01,2013-01-21 01:23:00,
2013-01-20 20:28:00,37.6,9.7,30.05,NW,304,2.0,4.0,31,0.00,,---,0.00,VWS V14.01,2013-01-21 01:28:00,
2013-01-20 20:33:00,37.1,10.0,30.05,NW,317,3.0,5.0,32,0.00,,---,0.00,VWS V14.01,2013-01-21 01:33:00,
2013-01-20 20:38:00,36.9,12.4,30.05,NW,317,2.0,4.0,36,0.00,,---,0.00,VWS V14.01,2013-01-21 01:38:00,
2013-01-20 20:43:00,36.4,7.9,30.05,NW,317,2.0,4.0,30,0.00,,---,0.00,VWS V14.01,2013-01-21 01:43:00,
2013-01-20 20:48:00,36.1,8.4,30.05,NW,317,4.0,4.0,31,0.00,,---,0.00,VWS V14.01,2013-01-21 01:48:00,
2013-01-20 20:53:00,36.0,11.0,30.05,NW,316,4.0,5.0,35,0.00,,---,0.00,VWS V14.01,2013-01-21 01:53:00,
2013-01-20 20:58:00,35.9,9.6,30.05,NW,316,3.0,4.0,33,0.00,,---,0.00,VWS V14.01,2013-01-21 01:58:00,
2013-01-20 21:03:00,35.7,5.8,30.05,NW,316,1.0,4.0,28,0.00,,---,0.00,VWS V14.01,2013-01-21 02:03:00,
2013-01-20 21:08:00,35.9,10.3,30.05,NW,316,2.0,4.0,34,0.00,,---,0.00,VWS V14.01,2013-01-21 02:08:00,
2013-01-20 21:13:00,36.1,6.2,30.05,NW,316,3.0,4.0,28,0.00,,---,0.00,VWS V14.01,2013-01-21 02:13:00,
2013-01-20 21:18:00,36.3,10.0,30.05,NW,315,2.0,5.0,33,0.00,,---,0.00,VWS V14.01,2013-01-21 02:18:00,
2013-01-20 21:23:00,36.1,9.1,30.05,NW,315,4.0,5.0,32,0.00,,---,0.00,VWS V14.01,2013-01-21 02:23:00,
2013-01-20 21:28:00,35.9,7.5,30.05,NW,315,2.0,6.0,30,0.00,,---,0.00,VWS V14.01,2013-01-21 02:28:00,
2013-01-20 21:33:00,35.7,8.8,30.05,NW,315,4.0,5.0,32,0.00,,---,0.00,VWS V14.01,2013-01-21 02:33:00,
2013-01-20 21:38:00,35.6,8.0,30.05,NW,315,3.0,5.0,31,0.00,,---,0.00,VWS V14.01,2013-01-21 02:38:00,
2013-01-20 21:43:00,35.3,9.1,30.05,NW,322,3.0,4.0,33,0.00,,---,0.00,VWS V14.01,2013-01-21 02:43:00,
2013-01-20 21:48:00,35.1,7.5,30.05,NNW,333,2.0,5.0,31,0.00,,---,0.00,VWS V14.01,2013-01-21 02:48:00,
2013-01-20 21:53:00,35.3,7.7,30.05,NNW,329,4.0,5.0,31,0.00,,---,0.00,VWS V14.01,2013-01-21 02:53:00,
2013-01-20 21:58:00,35.4,7.8,30.05,NNW,329,4.0,4.0,31,0.00,,---,0.00,VWS V14.01,2013-01-21 02:58:00,
2013-01-20 22:03:00,35.6,8.0,30.06,NNW,329,3.0,4.0,31,0.00,,---,0.00,VWS V14.01,2013-01-21 03:03:00,
2013-01-20 22:08:00,35.4,9.2,30.06,NNW,329,2.0,3.0,33,0.00,,---,0.00,VWS V14.01,2013-01-21 03:08:00,
2013-01-20 22:13:00,35.1,8.2,30.06,NNW,329,4.0,4.0,32,0.00,,---,0.00,VWS V14.01,2013-01-21 03:13:00,
2013-01-20 22:18:00,34.9,6.6,30.07,NNW,331,3.0,5.0,30,0.00,,---,0.00,VWS V14.01,2013-01-21 03:18:00,
2013-01-20 22:23:00,35.0,6.7,30.07,NNW,336,3.0,6.0,30,0.00,,---,0.00,VWS V14.01,2013-01-21 03:23:00,
2013-01-20 22:28:00,35.0,6.7,30.07,NNW,336,3.0,4.0,30,0.00,,---,0.00,VWS V14.01,2013-01-21 03:28:00,
2013-01-20 22:33:00,35.1,6.1,30.07,NNW,338,3.0,5.0,29,0.00,,---,0.00,VWS V14.01,2013-01-21 03:33:00,
2013-01-20 22:38:00,35.3,7.7,30.07,NNW,337,3.0,4.0,31,0.00,,---,0.00,VWS V14.01,2013-01-21 03:38:00,
2013-01-20 22:43:00,35.3,7.7,30.07,NNW,337,3.0,3.0,31,0.00,,---,0.00,VWS V14.01,2013-01-21 03:43:00,
2013-01-20 22:48:00,34.9,9.4,30.07,NNW,337,3.0,4.0,34,0.00,,---,0.00,VWS V14.01,2013-01-21 03:48:00,
2013-01-20 22:53:00,34.6,9.1,30.07,NNW,337,2.0,4.0,34,0.00,,---,0.00,VWS V14.01,2013-01-21 03:53:00,
2013-01-20 22:58:00,34.4,8.9,30.07,NNW,337,2.0,4.0,34,0.00,,---,0.00,VWS V14.01,2013-01-21 03:58:00,
2013-01-20 23:03:00,34.3,8.2,30.07,NNW,337,3.0,4.0,33,0.00,,---,0.00,VWS V14.01,2013-01-21 04:03:00,
2013-01-20 23:08:00,34.3,6.8,30.07,NNW,337,2.0,3.0,31,0.00,,---,0.00,VWS V14.01,2013-01-21 04:08:00,
2013-01-20 23:13:00,34.4,5.4,30.07,NNW,337,2.0,5.0,29,0.00,,---,0.00,VWS V14.01,2013-01-21 04:13:00,
2013-01-20 23:18:00,34.6,7.8,30.07,NW,314,5.0,5.0,32,0.00,,---,0.00,VWS V14.01,2013-01-21 04:18:00,
2013-01-20 23:23:00,34.4,6.9,30.07,NW,323,3.0,5.0,31,0.00,,---,0.00,VWS V14.01,2013-01-21 04:23:00,
2013-01-20 23:28:00,34.1,8.7,30.07,NW,323,3.0,4.0,34,0.00,,---,0.00,VWS V14.01,2013-01-21 04:28:00,
2013-01-20 23:33:00,34.0,8.6,30.07,NNW,327,4.0,5.0,34,0.00,,---,0.00,VWS V14.01,2013-01-21 04:33:00,
2013-01-20 23:38:00,34.0,7.9,30.07,NNW,331,3.0,5.0,33,0.00,,---,0.00,VWS V14.01,2013-01-21 04:38:00,
2013-01-20 23:43:00,33.5,8.1,30.07,NNW,330,5.0,5.0,34,0.00,,---,0.00,VWS V14.01,2013-01-21 04:43:00,
2013-01-20 23:48:00,33.4,9.9,30.07,NNW,330,3.0,4.0,37,0.00,,---,0.00,VWS V14.01,2013-01-21 04:48:00,
2013-01-20 23:53:00,33.2,9.1,30.07,NNW,333,3.0,5.0,36,0.00,,---,0.00,VWS V14.01,2013-01-21 04:53:00,
2013-01-20 23:58:00,33.4,8.1,30.07,NNW,333,3.0,4.0,34,0.00,,---,0.00,VWS V14.01,2013-01-21 04:58:00,